[[{"header":{"parameterUnit":"m.s-1","parameterCategory":1,"la1":30.2991,"la2":30.254,"lo1":-89.0895,"lo2":-89.0444,"dy":0.0017,"dx":0.0017,"nx":28,"ny":28,"refTime":"2024-08-06T09:00:00:Z","depth":0,"parameterNumber":2,"parameterNumberName":"U-component_of_WINDS"},"data":[0,0,0,0,0,0,0,0,0,0,0,0,0,0,0,0,0,0,0,0,0,0,0,0,0,0,0,0,0,0,0,0,0,0,0,0,0,0,0,0,0,0,0,0,0,0,0,0,0,0,0,0,0,0,0,0,0,0,2.6405,2.6405,0,2.6465,2.6466,2.6466,2.6451,2.6449,2.6448,2.6447,2.6514,2.6517,2.6519,0,0,0,0,0,0,0,0,0,0,0,0,0,2.6284,2.6286,2.6405,2.6405,2.6406,2.6465,2.6466,2.6466,2.6451,2.6449,2.6448,2.6447,2.6513,2.6516,2.652,0,0,0,0,0,0,0,0,0,0,0,0,0,2.6339,2.6287,2.6405,2.6405,2.6406,2.6465,2.6466,2.6467,2.6451,2.6449,2.6447,2.6446,2.6512,2.6516,2.652,2.6583,0,0,2.6533,2.6535,0,0,0,0,0,0,0,0,2.6336,2.6344,2.6405,2.6405,2.6406,2.6448,2.6447,2.6506,2.6452,2.6434,2.6447,2.6445,2.6494,2.6499,2.6515,2.6586,2.6589,2.6534,2.6536,2.6538,2.654,0,0,0,0,0,0,0,2.6332,2.6341,2.6429,2.6405,2.6407,2.6405,2.6411,2.6458,2.6474,2.6436,2.6435,2.6442,2.6494,2.6511,2.6516,2.659,2.6534,2.6538,2.654,2.6542,2.6722,2.6724,0,0,0,0,0,0,2.6327,2.6338,2.6427,2.643,2.6366,2.6409,2.6415,2.6437,2.6473,2.6477,2.6443,2.6441,2.6504,2.6511,2.6519,2.6599,2.6538,2.6542,2.6545,2.672,2.6723,2.6725,0,0,0,0,0,0,2.6324,2.6335,2.6424,2.6384,2.6395,2.6413,2.6437,2.6439,2.6456,2.6479,2.6482,2.6457,2.6503,2.6513,2.6568,2.6601,2.6544,2.6548,2.6717,2.6721,2.6724,2.6757,0,0,0,0,0,0,2.6321,2.6334,2.6356,2.6385,2.6397,2.6471,2.6439,2.6441,2.6463,2.646,2.6493,2.6496,2.6502,2.6562,2.6573,2.6606,2.6552,2.6715,2.6719,2.6723,2.6753,2.6761,2.6768,0,0,0,0,0,2.6317,2.6363,2.6357,2.6368,2.6425,2.6472,2.648,2.6485,2.6465,2.6489,2.6505,2.6495,2.6595,2.6568,2.658,2.6614,2.6713,2.6718,2.6722,2.675,2.6759,2.6767,0,0,0,0,0,0,2.6339,2.6367,2.6361,2.6417,2.6443,2.647,2.65,2.6494,2.6526,2.6523,2.6529,2.6536,2.6594,2.6609,2.6579,2.668,2.6651,2.6659,2.6668,2.6677,2.6684,2.6681,2.6555,0,0,0,0,0,2.635,2.6384,2.6407,2.6456,2.6468,2.6482,2.6503,2.6504,2.6531,2.6542,2.6562,2.659,2.6628,2.6653,2.6689,2.6755,2.6764,2.6785,2.6792,2.6798,2.6806,2.6846,2.6857,2.6741,2.6741,2.6741,0,0,2.6375,2.6394,2.6415,2.6461,2.648,2.6519,2.6491,2.6531,2.6561,2.6549,2.6603,2.6619,2.6651,2.6713,2.6742,2.6728,2.684,2.6804,2.6809,2.6813,2.6852,2.6863,2.6873,2.6744,2.6744,2.6743,0,0,2.6439,2.6455,2.6499,2.652,2.655,2.6559,2.657,2.6598,2.6608,2.6662,2.6656,2.6692,2.6756,2.6781,2.6802,2.6879,2.6873,2.6891,2.693,2.6969,2.6979,2.6987,2.7019,2.7029,2.6897,2.6897,2.6897,0,2.6466,2.6521,2.6523,2.6565,2.6587,2.6577,2.6624,2.6644,2.6685,2.6702,2.6686,2.6769,2.679,2.686,2.6879,2.6895,2.6911,2.6888,2.6976,2.6985,2.6993,2.7023,2.7035,2.69,2.6899,2.6899,2.6899,0,2.6555,2.6593,2.6625,2.6665,2.6691,2.6735,2.6746,2.6772,2.6772,2.6784,2.6843,2.6867,2.691,2.6926,2.6926,2.6998,2.6989,2.6974,2.6946,2.7006,2.7035,2.7046,2.6903,2.6902,2.6901,2.6901,0,0,2.6635,2.6676,2.6689,2.6708,2.6742,2.6773,2.6819,2.686,2.6884,2.6913,2.6954,2.701,2.6998,2.7022,2.7025,2.706,2.7125,2.7042,2.7043,2.706,2.7211,2.7224,2.7237,2.712,2.7123,2.7124,2.7209,0,2.6705,2.6783,2.6788,2.686,2.6899,2.6891,2.6931,2.6958,2.6971,2.7008,2.7023,2.7064,2.7043,2.7058,2.7091,2.711,2.7156,2.7103,2.7163,2.7165,2.7158,2.7251,2.7265,2.7344,2.722,2.7222,2.7223,0,2.6797,2.683,2.6906,2.6938,2.6954,2.699,2.703,2.7063,2.7096,2.7103,2.7131,2.7131,2.7181,2.7149,2.7222,2.7186,2.7211,2.7224,2.7227,2.7235,2.72,2.7266,2.7368,2.7382,2.724,2.7239,2.7238,0,2.6854,2.6916,2.697,2.6987,2.7024,2.7051,2.7068,2.7098,2.7123,2.7159,2.7177,2.7218,2.7242,2.7275,2.7288,2.7263,2.7361,2.7329,2.7373,2.7373,2.7396,2.7395,2.7507,2.7406,2.7405,2.7405,2.7405,0,2.6933,2.6981,2.6997,2.7031,2.7086,2.7091,2.7146,2.7162,2.719,2.7229,2.7225,2.7263,2.7275,2.7316,2.7325,2.7387,2.7396,2.7407,2.741,2.7409,2.7408,2.7428,2.7424,2.7408,2.7408,2.7407,2.7407,0,2.7006,2.7017,2.7078,2.7108,2.7118,2.7157,2.7185,2.722,2.7232,2.7283,2.7295,2.7317,2.7365,2.738,2.7438,2.7445,2.7518,2.7513,2.7507,2.7508,2.7552,2.7549,2.7684,2.7704,2.7585,2.7586,2.7587,0,2.7058,2.7095,2.713,2.7156,2.7174,2.7215,2.7242,2.725,2.7278,2.7319,2.735,2.7397,2.7436,2.7514,2.7537,2.7583,2.7582,2.7626,2.7589,2.7589,2.7588,2.7587,2.7593,2.7634,2.7635,2.7636,2.7637,0,2.7151,2.7155,2.7192,2.7233,2.7265,2.7297,2.7329,2.735,2.7364,2.7396,2.7445,2.7475,2.7535,2.7584,2.7631,2.7652,2.7649,2.7648,2.7662,2.7663,2.766,2.7667,2.753,2.7646,2.7645,2.7644,2.7644,2.7643,2.7217,2.7251,2.7282,2.7326,2.735,2.738,2.7415,2.7433,2.7473,2.7522,2.7525,2.7579,2.7614,2.7677,2.77,2.7745,2.7733,2.7751,2.7756,2.7762,2.7768,2.765,2.7753,2.7753,2.7753,2.7753,2.7753,0,2.7313,2.7333,2.7372,2.7417,2.7452,2.7443,2.7478,2.7509,2.7556,2.7588,2.7627,2.7686,2.7734,2.776,2.7809,2.7841,2.7841,2.7854,2.7854,2.786,2.7773,2.7759,2.7853,2.7853,2.7853,2.7853,2.7853,2.7853,2.7368,2.7426,2.7435,2.7507,2.7527,2.7579,2.7601,2.763,2.7656,2.7722,2.7761,2.7778,2.7809,2.7861,2.7906,2.7913,2.7934,2.7949,2.7955,2.7875,2.7865,2.7855,2.7842,2.7952,2.7952,2.8038,2.8039,2.8039]},{"header":{"parameterUnit":"m.s-1","parameterCategory":1,"la1":30.2991,"la2":30.254,"lo1":-89.0895,"lo2":-89.0444,"dy":0.0017,"dx":0.0017,"nx":28,"ny":28,"refTime":"2024-08-06T09:00:00:Z","depth":0,"parameterNumber":3,"parameterNumberName":"V-component_of_WINDS"},"data":[0,0,0,0,0,0,0,0,0,0,0,0,0,0,0,0,0,0,0,0,0,0,0,0,0,0,0,0,0,0,0,0,0,0,0,0,0,0,0,0,0,0,0,0,0,0,0,0,0,0,0,0,0,0,0,0,0,0,-1.8028,-1.8027,0,-1.7955,-1.7954,-1.7953,-1.8002,-1.8004,-1.8006,-1.8008,-1.7928,-1.7924,-1.792,0,0,0,0,0,0,0,0,0,0,0,0,0,-1.8207,-1.8203,-1.8028,-1.8027,-1.8026,-1.7955,-1.7954,-1.7953,-1.8001,-1.8004,-1.8007,-1.801,-1.793,-1.7925,-1.792,0,0,0,0,0,0,0,0,0,0,0,0,0,-1.8131,-1.8202,-1.8028,-1.8042,-1.8042,-1.7955,-1.7954,-1.7953,-1.8001,-1.8004,-1.8008,-1.8011,-1.7931,-1.7925,-1.7919,-1.7812,0,0,-1.7899,-1.7897,0,0,0,0,0,0,0,0,-1.8135,-1.8124,-1.8041,-1.8041,-1.8041,-1.7991,-1.7988,-1.7905,-1.8,-1.8016,-1.8009,-1.8012,-1.7946,-1.7939,-1.7917,-1.7808,-1.7805,-1.7899,-1.7895,-1.7892,-1.7891,0,0,0,0,0,0,0,-1.814,-1.8127,-1.7999,-1.804,-1.804,-1.8051,-1.8044,-1.7972,-1.7963,-1.8015,-1.8019,-1.801,-1.7947,-1.7923,-1.7916,-1.7804,-1.7899,-1.7893,-1.789,-1.7887,-1.7606,-1.7602,0,0,0,0,0,0,-1.8145,-1.8131,-1.8001,-1.7997,-1.8098,-1.8045,-1.8037,-1.8004,-1.7964,-1.7961,-1.8007,-1.8012,-1.7933,-1.7923,-1.7913,-1.7787,-1.7892,-1.7886,-1.7883,-1.7609,-1.7605,-1.7601,0,0,0,0,0,0,-1.8148,-1.8133,-1.8004,-1.8065,-1.805,-1.8038,-1.8,-1.8,-1.7977,-1.7958,-1.7956,-1.7985,-1.7935,-1.7922,-1.7838,-1.7785,-1.7884,-1.7878,-1.7614,-1.7608,-1.7603,-1.7533,0,0,0,0,0,0,-1.8153,-1.8134,-1.8093,-1.8064,-1.8046,-1.793,-1.7997,-1.7997,-1.7967,-1.7973,-1.7937,-1.7934,-1.7937,-1.7847,-1.7831,-1.7778,-1.7873,-1.7618,-1.7611,-1.7605,-1.754,-1.7526,-1.7513,0,0,0,0,0,-1.8159,-1.8075,-1.8091,-1.8075,-1.7996,-1.7927,-1.7917,-1.7924,-1.7962,-1.7921,-1.791,-1.7935,-1.7793,-1.7838,-1.7821,-1.7765,-1.7622,-1.7613,-1.7605,-1.7546,-1.7528,-1.7514,0,0,0,0,0,0,-1.8096,-1.8071,-1.8089,-1.7993,-1.7962,-1.7936,-1.7884,-1.7905,-1.7861,-1.7869,-1.7877,-1.7868,-1.778,-1.7764,-1.7814,-1.766,-1.7714,-1.7701,-1.7674,-1.7657,-1.7645,-1.765,-1.7868,0,0,0,0,0,-1.8072,-1.8019,-1.8,-1.7917,-1.7901,-1.7895,-1.7866,-1.7874,-1.7842,-1.7828,-1.781,-1.7776,-1.7725,-1.769,-1.7641,-1.7538,-1.7531,-1.7491,-1.7478,-1.7467,-1.7456,-1.7402,-1.7384,-1.7574,-1.7574,-1.7574,0,0,-1.8019,-1.7999,-1.7965,-1.7904,-1.7881,-1.7826,-1.7884,-1.7822,-1.7782,-1.7818,-1.7738,-1.7724,-1.7687,-1.7594,-1.7551,-1.7577,-1.7403,-1.7457,-1.7448,-1.7443,-1.7392,-1.7374,-1.7358,-1.7568,-1.7569,-1.757,0,0,-1.7896,-1.7875,-1.7805,-1.7781,-1.7747,-1.7745,-1.7728,-1.7699,-1.7691,-1.7612,-1.7639,-1.759,-1.75,-1.7474,-1.7448,-1.7318,-1.734,-1.7302,-1.7232,-1.7179,-1.7164,-1.7151,-1.7105,-1.7089,-1.7291,-1.7291,-1.7291,0,-1.7834,-1.7754,-1.7765,-1.7703,-1.7675,-1.7709,-1.7637,-1.7613,-1.7564,-1.7544,-1.7574,-1.7465,-1.7442,-1.7343,-1.7312,-1.729,-1.7271,-1.7305,-1.7166,-1.7153,-1.7141,-1.7097,-1.708,-1.7287,-1.7287,-1.7288,-1.7288,0,-1.768,-1.7624,-1.7571,-1.7526,-1.7492,-1.7425,-1.7426,-1.739,-1.7402,-1.7396,-1.7315,-1.729,-1.7238,-1.7215,-1.7224,-1.7118,-1.7135,-1.7165,-1.7219,-1.7118,-1.7077,-1.706,-1.728,-1.7282,-1.7283,-1.7284,0,0,-1.7513,-1.7477,-1.7457,-1.7438,-1.7404,-1.736,-1.7295,-1.7246,-1.7216,-1.7181,-1.7127,-1.7052,-1.7081,-1.7052,-1.7059,-1.7013,-1.6912,-1.7049,-1.7048,-1.7025,-1.6794,-1.6772,-1.6752,-1.6927,-1.6924,-1.6922,-1.6798,0,-1.7388,-1.7277,-1.7286,-1.718,-1.7129,-1.7161,-1.7105,-1.7078,-1.7071,-1.7026,-1.7018,-1.6965,-1.7006,-1.699,-1.6945,-1.6934,-1.6866,-1.6943,-1.6876,-1.6874,-1.6884,-1.6731,-1.6706,-1.659,-1.6782,-1.6779,-1.6777,0,-1.7227,-1.719,-1.7079,-1.7055,-1.7034,-1.6983,-1.694,-1.6897,-1.6867,-1.6865,-1.6835,-1.6851,-1.6785,-1.6841,-1.6751,-1.6803,-1.6776,-1.6767,-1.6763,-1.6756,-1.6819,-1.672,-1.6553,-1.6536,-1.6752,-1.6754,-1.6756,0,-1.7117,-1.7039,-1.6963,-1.6945,-1.6915,-1.6879,-1.6865,-1.6838,-1.6809,-1.6771,-1.6752,-1.6706,-1.6681,-1.6645,-1.6648,-1.6688,-1.6556,-1.6612,-1.6553,-1.6552,-1.6523,-1.6524,-1.6349,-1.6505,-1.6506,-1.6506,-1.6506,0,-1.6976,-1.6907,-1.6914,-1.6867,-1.6791,-1.6803,-1.6728,-1.6717,-1.6694,-1.6646,-1.667,-1.6624,-1.6631,-1.6584,-1.6586,-1.6512,-1.65,-1.6496,-1.6497,-1.6494,-1.6494,-1.6476,-1.6484,-1.6501,-1.6502,-1.6503,-1.6504,0,-1.684,-1.6841,-1.6761,-1.674,-1.6734,-1.6679,-1.6661,-1.6616,-1.6613,-1.6552,-1.6538,-1.6531,-1.6478,-1.6478,-1.6417,-1.6418,-1.6327,-1.6337,-1.6338,-1.634,-1.6281,-1.6287,-1.6088,-1.6063,-1.6235,-1.6233,-1.6232,0,-1.675,-1.6698,-1.6673,-1.6644,-1.6627,-1.6579,-1.655,-1.656,-1.6529,-1.6492,-1.6452,-1.6402,-1.6363,-1.6276,-1.6266,-1.6219,-1.6229,-1.6162,-1.6222,-1.6221,-1.6228,-1.6231,-1.6227,-1.615,-1.6148,-1.6147,-1.6146,0,-1.659,-1.6595,-1.6553,-1.6512,-1.6477,-1.6445,-1.6415,-1.6389,-1.6396,-1.6359,-1.6307,-1.6276,-1.6215,-1.6165,-1.6121,-1.6105,-1.6126,-1.6127,-1.6111,-1.6107,-1.611,-1.6108,-1.6306,-1.6132,-1.6133,-1.6134,-1.6135,-1.6135,-1.6475,-1.6431,-1.6408,-1.6361,-1.634,-1.6312,-1.6271,-1.6263,-1.622,-1.6172,-1.6181,-1.6122,-1.6095,-1.6038,-1.6019,-1.5973,-1.5996,-1.5972,-1.5966,-1.596,-1.5954,-1.6118,-1.5964,-1.5965,-1.5965,-1.5966,-1.5966,0,-1.6317,-1.6305,-1.6261,-1.622,-1.6184,-1.6209,-1.6178,-1.6145,-1.6094,-1.6068,-1.603,-1.597,-1.5922,-1.5909,-1.5863,-1.5828,-1.5837,-1.5816,-1.5818,-1.5815,-1.5936,-1.5955,-1.581,-1.581,-1.581,-1.581,-1.581,-1.581,-1.6231,-1.6159,-1.6161,-1.6079,-1.6067,-1.6011,-1.5991,-1.5966,-1.5945,-1.5878,-1.584,-1.5832,-1.5811,-1.5764,-1.5722,-1.5719,-1.5701,-1.5676,-1.5677,-1.579,-1.5806,-1.5821,-1.5839,-1.5672,-1.5672,-1.556,-1.5559,-1.5558]}]]